This demonstration page uses our WeatherBlox Daily Observations layout. Learn more.

Left ArrowRight Arrow

38.20091, -84.87328

Hourly Observations for February 11, 2020

Temp ( °F °C ) Dew Point ( °F °C ) Humidity (%) Winds ( mph kmh ) Pressure ( in mb ) Visibility ( mi km ) Precip ( " mm )
12:53 am 00:53 Cloudy with Mist and Fog 41 5 39 3.9 93 93 N 8 13 30.04 1017 3 5 0.00 0.00
1:53 am 01:53 Cloudy with Light Rain 40 4.4 38 3.3 93 93 NNW 8 13 30.07 1018 5 8 0.03 0.76
2:53 am 02:53 Cloudy with Light Rain 39 3.9 37 2.8 93 93 NNW 6 9 30.06 1018 9 14 0.04 1.02
3:18 am 03:18 Cloudy with Light Rain 39 3.9 37 2.8 93 93 N 5 7 30.08 1019 9 14 0.01 0.25
3:53 am 03:53 Cloudy with Light Rain 39 3.9 37 2.8 93 93 N 5 7 30.04 1017 9 14 0.02 0.51
4:21 am 04:21 Cloudy 38 3.3 36 2.2 93 93 N 6 9 30.07 1018 10 16 0.00 0.00
4:45 am 04:45 Cloudy 38 3.3 36 2.2 93 93 N 7 11 30.06 1018 10 16 0.00 0.00
4:53 am 04:53 Cloudy 38 3.3 36 2.2 93 93 NNE 6 9 30.03 1017 10 16 0.00 0.00
5:53 am 05:53 Cloudy 38 3.3 35 1.7 89 89 N 7 11 30.05 1018 10 16 0.02 0.51
6:34 am 06:34 Cloudy 37 2.8 35 1.7 93 93 N 8 13 30.08 1019 10 16 0.00 0.00
6:53 am 06:53 Cloudy with Light Rain 37 2.8 35 1.7 93 93 N 9 15 30.05 1018 9 14 0.00 0.00
7:53 am 07:53 Cloudy with Light Rain 37 2.8 34 1.1 89 89 N 7 11 30.05 1018 7 11 0.01 0.25
8:27 am 08:27 Cloudy 37 2.8 34 1.1 89 89 N 8 13 30.08 1019 8 13 0.00 0.00
8:38 am 08:38 Cloudy with Light Rain 37 2.8 34 1.1 89 89 N 8 13 30.08 1019 6 10 0.00 0.00
8:53 am 08:53 Cloudy with Mist and Fog 37 2.8 34 1.1 89 89 N 7 11 30.06 1018 6 10 0.00 0.00
9:53 am 09:53 Cloudy with Light Rain 37 2.8 34 1.1 89 89 N 6 9 30.08 1019 6 10 0.00 0.00
10:53 am 10:53 Cloudy 38 3.3 35 1.7 89 89 N 6 9 30.09 1019 7 11 0.01 0.25
11:53 am 11:53 Cloudy with Mist and Fog 38 3.3 35 1.7 89 89 NNW 7 11 30.10 1019 6 10 0.00 0.00
12:53 pm 12:53 Cloudy with Mist and Fog 39 3.9 35 1.7 86 86 NW 3 6 30.09 1019 6 10 0.00 0.00
1:53 pm 13:53 Cloudy 40 4.4 35 1.7 83 83 VRB 5 7 30.09 1019 7 11 0.00 0.00
2:53 pm 14:53 Cloudy 41 5 35 1.7 79 79 WNW 9 15 30.10 1019 8 13 0.00 0.00
3:22 pm 15:22 Cloudy 41 5 34 1.1 76 76 NW 9 15 30.13 1020 9 14 0.00 0.00
3:53 pm 15:53 Cloudy 41 5 34 1.1 76 76 NW 9 15 30.11 1020 10 16 0.00 0.00
4:24 pm 16:24 Mostly Cloudy 41 5 34 1.1 76 76 W 6 9 30.13 1020 10 16 0.00 0.00
4:53 pm 16:53 Sunny 41 5 34 1.1 76 76 WNW 7 11 30.12 1020 10 16 0.00 0.00
5:53 pm 17:53 Sunny 40 4.4 34 1.1 79 79 Calm 30.14 1021 10 16 0.00 0.00
6:53 pm 18:53 Clear 39 3.9 34 1.1 82 82 WSW 3 6 30.18 1022 10 16 0.00 0.00
7:53 pm 19:53 Clear 38 3.3 35 1.7 89 89 Calm 30.20 1023 9 14 0.00 0.00
8:53 pm 20:53 Clear 37 2.8 34 1.1 89 89 Calm 30.21 1023 8 13 0.00 0.00
9:53 pm 21:53 Mostly Cloudy 36 2.2 34 1.1 93 93 Calm 30.21 1023 7 11 0.00 0.00
10:53 pm 22:53 Cloudy with Mist and Fog 36 2.2 34 1.1 93 93 Calm 30.22 1024 6 10 0.00 0.00
11:53 pm 23:53 Clear with Mist and Fog 33 0.6 32 0 96 96 Calm 30.21 1023 5 8 0.00 0.00

Powered by AerisWeather